Stations météo

réclame
Mon MeteoGroup
Liscombe, Grande-Bretagne (3710): Température de l'air & dewpoint: 08.08.2018 16:00:00 - 14.08.2018 16:00:00 (BST)Liscombe, Grande-Bretagne (3710): Température de l'air -20cm & Température de l'air -100cm: 08.08.2018 16:00:00 - 14.08.2018 16:00:00 (BST)Liscombe, Grande-Bretagne (3710): Vitesse du vent & gusts: 08.08.2018 16:00:00 - 14.08.2018 16:00:00 (BST)Liscombe, Grande-Bretagne (3710): Direction du vent: 08.08.2018 16:00:00 - 14.08.2018 16:00:00 (BST)Liscombe, Grande-Bretagne (3710): reduced air pressure: 08.08.2018 16:00:00 - 14.08.2018 16:00:00 (BST)Liscombe, Grande-Bretagne (3710): visibility: 08.08.2018 16:00:00 - 14.08.2018 16:00:00 (BST)Liscombe, Grande-Bretagne (3710): Ensoleillement: 08.08.2018 16:00:00 - 14.08.2018 16:00:00 (BST)Liscombe, Grande-Bretagne (3710): Quantités de précipitations: 08.08.2018 16:00:00 - 14.08.2018 16:00:00 (BST)
Date & Time tt [°C] td [°C] tt -20cm [°C] tt -100cm [°C] ff [km/h] ff [knt] fx [km/h] fx [knt] dd ppp [hPa] vv [km] sd [min] rr [mm]
14.08.2018 16:00:00 17,9 14,2 - - 21 11 - - W 1018,7 40 30 0,0
14.08.2018 15:00:00 17,2 14,7 - - 21 11 - - W 1018,5 35 0 0,4
14.08.2018 14:00:00 16,5 15,8 - - 16 9 - - W 1018,5 24 0 0,0
14.08.2018 13:00:00 16,7 16,1 - - 15 8 - - W 1018,4 7 0 0,0
14.08.2018 12:00:00 16,8 14,9 - - 16 9 - - W 1018,2 40 0 0,0
14.08.2018 11:00:00 17,9 15,2 - - 16 9 - - W 1017,7 40 36 0,0
14.08.2018 10:00:00 17,9 16,7 18,2 16,7 15 8 - - W 1017,3 30 24 0,0
14.08.2018 09:00:00 16,9 16,8 - - 8 4 - - WSW 1017,0 25 6 0,0
14.08.2018 08:00:00 15,5 15,4 - - 11 6 - - W 1016,8 20 0 0,0
14.08.2018 07:00:00 14,8 14,8 - - 9 5 - - W 1016,7 17 0 0,0
14.08.2018 06:00:00 14,5 14,4 - - 9 5 - - W 1016,1 24 0 0,0
14.08.2018 05:00:00 14,3 14,1 - - 5 3 - - WNW 1015,9 28 0 0,0
14.08.2018 04:00:00 14,3 14,2 - - 11 6 - - WNW 1015,7 30 0 0,0
14.08.2018 03:00:00 13,7 13,7 - - 8 4 - - WNW 1015,5 17 0 0,0
14.08.2018 02:00:00 12,9 12,9 - - 8 4 - - WNW 1015,5 14 0 0,0
14.08.2018 01:00:00 12,9 12,9 - - 8 4 - - WNW 1015,4 17 - 0,0
14.08.2018 00:00:00 12,5 12,2 - - 5 3 - - WNW 1015,2 20 0 0,0
13.08.2018 23:00:00 13,1 12,9 - - 9 5 - - WNW 1014,9 16 0 0,0
13.08.2018 22:00:00 13,7 13,6 - - 11 6 - - WNW 1014,3 18 0 0,0
13.08.2018 21:00:00 13,9 13,1 - - 9 5 - - WNW 1013,5 22 0 0,0
13.08.2018 20:00:00 15,0 13,5 - - 9 5 - - NW 1012,8 20 36 0,0
13.08.2018 19:00:00 17,3 13,8 - - 15 8 - - WNW 1011,7 40 60 0,0
13.08.2018 18:00:00 18,2 13,6 - - 18 10 - - WNW 1011,2 50 60 0,0
13.08.2018 17:00:00 18,3 14,4 - - 15 8 - - WNW 1010,8 50 42 0,0
13.08.2018 16:00:00 18,2 14,9 - - 18 10 - - NW 1010,4 45 12 0,0
13.08.2018 15:00:00 18,8 15,7 - - 15 8 - - NW 1010,1 50 6 0,0
13.08.2018 14:00:00 19,5 16,1 - - 16 9 - - WNW 1009,6 45 12 0,0
13.08.2018 13:00:00 17,9 14,6 - - 15 8 - - NW 1009,4 45 0 0,0
13.08.2018 12:00:00 18,1 16,2 - - 11 6 - - WNW 1008,9 45 0 0,0
13.08.2018 11:00:00 18,1 16,5 - - 13 7 - - W 1008,4 35 12 0,0
13.08.2018 10:00:00 16,6 15,6 18,0 16,7 11 6 - - W 1008,2 30 6 0,0
13.08.2018 09:00:00 15,2 15,1 - - 11 6 - - W 1008,1 30 18 0,0
13.08.2018 08:00:00 14,3 14,3 - - 9 5 - - WNW 1008,0 35 12 0,0
13.08.2018 07:00:00 12,9 12,9 - - 8 4 - - WNW 1007,5 8 0 0,0
13.08.2018 06:00:00 12,8 12,7 - - 9 5 - - NW 1007,1 5 0 0,0
13.08.2018 05:00:00 13,1 13,1 - - 8 4 - - NW 1006,7 6 0 0,2
13.08.2018 04:00:00 13,5 13,4 - - 8 4 - - WNW 1006,7 13 0 0,0
13.08.2018 03:00:00 13,0 13,0 - - 5 3 - - WNW 1006,6 11 0 0,0
13.08.2018 02:00:00 13,6 13,6 - - 4 2 - - WNW 1006,5 10 0 0,6
13.08.2018 01:00:00 13,5 13,5 - - 4 2 - - W 1006,7 3,4 - 1,2
13.08.2018 00:00:00 13,5 13,5 - - 8 4 - - W 1006,9 0,6 0 0,0
12.08.2018 23:00:00 13,4 13,4 - - 5 3 - - W 1006,9 12 0 0,0
12.08.2018 22:00:00 13,5 13,4 - - 8 4 - - W 1006,9 28 0 0,6
12.08.2018 21:00:00 13,7 13,7 - - 5 3 - - W 1006,7 9 0 0,2
12.08.2018 20:00:00 14,2 14,1 - - 8 4 - - W 1006,6 4,9 0 0,0
12.08.2018 19:00:00 14,9 14,4 - - 9 5 - - W 1006,5 35 0 0,0
12.08.2018 18:00:00 15,1 14,5 - - 11 6 - - W 1006,7 35 6 2,0
12.08.2018 17:00:00 18,0 17,2 - - 5 3 - - WSW 1006,2 35 6 0,6
12.08.2018 16:00:00 17,7 14,7 - - 18 10 - - SSW 1006,7 30 0 0,0
12.08.2018 15:00:00 18,6 16,6 - - 11 6 - - SSW 1006,8 40 0 0,0
12.08.2018 14:00:00 17,5 17,3 - - 13 7 - - SSW 1007,3 40 0 0,0
12.08.2018 13:00:00 16,1 16,1 - - 18 10 - - S 1007,6 1,7 0 0,4
12.08.2018 12:00:00 16,3 16,2 - - 22 12 - - S 1007,9 35 0 0,2
12.08.2018 11:00:00 16,2 16,2 - - 24 13 - - S 1008,0 35 0 0,2
12.08.2018 10:00:00 15,4 15,4 17,7 17,0 21 11 - - S 1008,4 4,6 0 0,4
12.08.2018 09:00:00 15,4 15,4 - - 21 11 - - S 1008,6 16 0 0,4
12.08.2018 08:00:00 15,0 15,0 - - 18 10 - - S 1008,8 0,1 0 0,2
12.08.2018 07:00:00 14,6 14,6 - - 16 9 - - S 1009,7 3,0 0 5,4
12.08.2018 06:00:00 14,6 14,6 - - 18 10 - - S 1010,2 2,3 0 1,0
12.08.2018 05:00:00 14,6 14,6 - - 21 11 - - S 1010,6 1,3 0 1,4
12.08.2018 04:00:00 14,8 14,7 - - 21 11 46 25 S 1011,3 13 0 0,0
12.08.2018 03:00:00 14,8 14,8 - - 28 15 - - S 1011,8 9 0 0,2
12.08.2018 02:00:00 14,9 14,9 - - 24 13 - - S 1012,9 13 0 0,6
12.08.2018 01:00:00 15,0 15,0 - - 22 12 - - S 1013,9 14 - 0,8
12.08.2018 00:00:00 14,9 14,8 - - 22 12 - - S 1014,4 2,7 0 6,6
11.08.2018 23:00:00 14,6 14,5 - - 21 11 - - S 1015,2 1,6 0 5,2
11.08.2018 22:00:00 14,2 14,2 - - 24 13 - - S 1016,0 1,4 0 4,6
11.08.2018 21:00:00 13,9 13,9 - - 22 12 - - S 1016,1 4,4 0 1,0
11.08.2018 20:00:00 14,1 14,0 - - 22 12 - - S 1016,9 2,7 0 0,4
11.08.2018 19:00:00 14,8 14,6 - - 22 12 - - S 1017,1 10 0 0,6
11.08.2018 18:00:00 15,0 14,2 - - 24 13 - - S 1017,8 22 0 0,0
11.08.2018 17:00:00 15,1 15,0 - - 26 14 - - SSW 1018,0 14 0 0,2
11.08.2018 16:00:00 15,1 15,1 - - 21 11 - - S 1018,7 3,5 0 2,4
11.08.2018 15:00:00 15,5 15,5 - - 18 10 - - S 1019,3 3,6 0 2,2
11.08.2018 14:00:00 15,4 15,4 - - 18 10 - - S 1019,8 2,3 0 0,8
11.08.2018 13:00:00 14,4 14,3 - - 18 10 - - S 1020,5 10 0 0,2
11.08.2018 12:00:00 13,6 13,6 - - 15 8 - - S 1021,2 0,3 0 0,4
11.08.2018 11:00:00 12,1 12,1 - - 15 8 - - S 1021,9 0,3 0 0,2
11.08.2018 10:00:00 11,3 11,2 18,0 17,0 9 5 - - SSE 1022,3 4,1 0 0,4
11.08.2018 09:00:00 10,8 10,5 - - 5 3 - - SSE 1022,9 4,4 0 0,2
11.08.2018 08:00:00 11,0 9,7 - - 2 1 - - SSE 1022,9 12 0 0,0
11.08.2018 07:00:00 10,2 8,8 - - 2 1 - - SE 1023,0 40 0 0,0
11.08.2018 06:00:00 8,6 7,5 - - 4 2 - - S 1023,2 35 0 0,0
11.08.2018 05:00:00 8,9 8,3 - - 2 1 - - W 1023,3 40 0 0,0
11.08.2018 04:00:00 8,1 7,3 - - 4 2 - - NW 1023,5 35 0 0,0
11.08.2018 03:00:00 8,1 7,2 - - 2 1 - - WNW 1023,7 35 0 0,0
11.08.2018 02:00:00 7,7 6,9 - - 5 3 - - NNW 1023,9 40 0 0,0
11.08.2018 01:00:00 7,8 7,0 - - 8 4 - - NNW 1023,9 35 - 0,0
11.08.2018 00:00:00 8,0 7,1 - - 9 5 - - NNW 1023,6 40 0 0,0
10.08.2018 23:00:00 8,7 7,7 - - 8 4 - - NW 1023,4 35 0 0,0
10.08.2018 22:00:00 9,1 7,8 - - 8 4 - - NW 1022,8 35 0 0,0
10.08.2018 21:00:00 10,0 7,9 - - 8 4 - - WNW 1021,9 40 0 0,0
10.08.2018 20:00:00 12,3 8,5 - - 11 6 - - WNW 1021,1 45 36 0,0
10.08.2018 19:00:00 14,0 7,9 - - 15 8 - - WNW 1020,3 50 54 0,0
10.08.2018 18:00:00 15,6 8,8 - - 16 9 - - W 1019,5 50 24 0,0
10.08.2018 17:00:00 15,5 8,9 - - 22 12 - - W 1019,0 50 36 0,0
10.08.2018 16:00:00 17,4 10,3 - - 18 10 - - W 1018,2 50 48 0,0
10.08.2018 15:00:00 16,7 11,5 - - 22 12 - - WNW 1017,9 45 30 0,4
10.08.2018 14:00:00 16,0 12,4 - - 16 9 - - WNW 1017,6 7 30 0,4
10.08.2018 13:00:00 14,7 12,4 - - 18 10 - - W 1017,2 50 36 0,0
10.08.2018 12:00:00 13,5 12,3 - - 18 10 - - W 1017,0 16 6 0,8
10.08.2018 11:00:00 13,9 13,8 - - 15 8 - - W 1016,3 50 12 0,8
10.08.2018 10:00:00 12,2 12,2 18,7 17,2 21 11 - - SW 1016,4 9 0 2,4
10.08.2018 09:00:00 11,1 11,1 - - 15 8 - - S 1016,8 6 0 0,2
10.08.2018 08:00:00 10,5 10,5 - - 11 6 - - S 1017,2 25 0 0,2
10.08.2018 07:00:00 9,7 9,7 - - 9 5 - - SW 1017,7 21 0 0,0
10.08.2018 06:00:00 8,9 8,9 - - 9 5 - - SW 1018,0 12 0 0,0
10.08.2018 05:00:00 8,9 8,9 - - 9 5 - - SW 1018,0 8 0 0,0
10.08.2018 04:00:00 8,4 8,4 - - 5 3 - - WSW 1018,3 7 0 0,0
10.08.2018 03:00:00 8,9 8,9 - - 11 6 - - SW 1018,3 20 0 0,0
10.08.2018 02:00:00 9,1 9,0 - - 9 5 - - SW 1018,6 4,5 0 0,4
10.08.2018 01:00:00 9,2 9,1 - - 11 6 - - SW 1018,5 23 - 0,0
10.08.2018 00:00:00 9,0 8,6 - - 4 2 - - NW 1018,5 25 0 0,0
09.08.2018 23:00:00 9,2 8,5 - - 5 3 - - W 1018,2 35 0 0,0
09.08.2018 22:00:00 9,7 8,5 - - 5 3 - - W 1017,8 30 0 0,0
09.08.2018 21:00:00 10,6 8,8 - - 9 5 - - W 1017,4 40 0 0,0
09.08.2018 20:00:00 12,4 9,0 - - 11 6 - - W 1016,7 40 30 0,0
09.08.2018 19:00:00 14,8 8,0 - - 16 9 - - W 1015,9 50 60 0,0
09.08.2018 18:00:00 16,5 7,8 - - 18 10 - - W 1015,2 45 60 0,0
09.08.2018 17:00:00 17,4 7,3 - - 18 10 - - W 1015,0 40 60 0,0
09.08.2018 16:00:00 18,9 11,3 - - 18 10 - - W 1014,6 40 42 0,0
09.08.2018 15:00:00 18,4 9,8 - - 15 8 - - WNW 1014,8 50 30 0,0
09.08.2018 14:00:00 17,2 8,9 - - 13 7 - - WNW 1014,9 45 30 0,0
09.08.2018 13:00:00 17,1 9,9 - - 13 7 - - NNW 1014,6 50 12 0,0
09.08.2018 12:00:00 16,2 9,2 - - 11 6 - - NW 1014,4 50 24 0,0
09.08.2018 11:00:00 14,7 10,7 - - 11 6 - - NNW 1014,4 35 18 0,0
09.08.2018 10:00:00 16,4 12,2 18,9 17,4 9 5 - - NNW 1013,8 35 42 0,0
09.08.2018 09:00:00 13,7 12,4 - - 5 3 - - WNW 1014,2 35 54 0,0
09.08.2018 08:00:00 11,0 10,8 - - 5 3 - - NNW 1014,5 30 12 0,0
09.08.2018 07:00:00 9,8 9,6 - - 9 5 - - NNW 1014,2 30 0 0,0
09.08.2018 06:00:00 9,1 8,5 - - 9 5 - - NNW 1014,7 35 0 0,0
09.08.2018 05:00:00 9,5 8,9 - - 8 4 - - NNW 1014,5 35 0 0,0
09.08.2018 04:00:00 9,9 9,4 - - 8 4 - - NNW 1014,4 40 0 0,0
09.08.2018 03:00:00 9,9 9,6 - - 8 4 - - NNW 1014,4 40 0 0,0
09.08.2018 02:00:00 9,8 9,7 - - 8 4 - - NW 1014,8 35 0 0,0
09.08.2018 01:00:00 9,7 9,6 - - 4 2 - - NW 1015,0 27 - 0,0
09.08.2018 00:00:00 9,9 9,5 - - 5 3 - - NW 1015,0 29 0 0,0
08.08.2018 23:00:00 10,7 10,0 - - 8 4 - - NW 1014,6 28 0 0,0
08.08.2018 22:00:00 12,0 10,6 - - 8 4 - - NW 1014,4 35 0 0,0
08.08.2018 21:00:00 13,0 10,6 - - 5 3 - - WNW 1013,9 40 0 0,0
08.08.2018 20:00:00 14,3 10,3 - - 11 6 - - W 1013,3 45 30 0,0
08.08.2018 19:00:00 15,4 11,4 - - 11 6 - - W 1012,9 40 0 0,0
08.08.2018 18:00:00 16,6 11,1 - - 15 8 - - W 1012,5 45 6 0,0
08.08.2018 17:00:00 17,1 13,0 - - 11 6 - - W 1012,3 40 0 0,0
08.08.2018 16:00:00 16,1 11,3 - - 13 7 - - W 1012,6 45 24 0,0

tt = Température de l'air
td = dewpoint
tt -20cm = Température de l'air -20cm
tt -100cm = Température de l'air -100cm
ff = Vitesse du vent
fx = gusts
dd = Direction du vent
ppp = reduced air pressure
vv = visibility
sd = Ensoleillement
rr = Quantités de précipitations

stations d'obs. à proximité